Flag for Norway Weather past 2 weeks in Spydeberg, Norway

Now
64 °F

Fog.


Feels Like: 64 °F
Forecast: 58 / 71 °F
Wind: 14 mph from South

Location: Rygge

Current Time: Jul 6, 2015 at 9:20:04 AM

Latest Report: Jul 6, 2015 at 8:50 AM


Visibility: 3 mi

Pressure: 29.59 "Hg

Humidity: 94%

Dew point: 63 °F

Location of SpydebergLocation

Historic Weather in Spydeberg — Graph

°F

Spydeberg temperature yesterday

Maximum temperature yesterday: 77 °F (at 6:20 PM)
Minimum temperature yesterday: 59 °F (at 12:20 AM)
Average temperature yesterday: 67 °F

Past Weeks' High & Low Weather Summary

 TemperatureHumidityPressure
High77 °F (Jul 5, 6:20 PM)100% (Jun 24, 2:50 AM)30.36 "Hg (Jun 24, 2:50 AM)
Low46 °F (Jun 27, 4:20 AM)37% (Jun 25, 2:50 PM)29.62 "Hg (Jul 6, 7:20 AM)
Average61 °F76%29.98 "Hg
* Reported Jun 21 7:20 AM — Jul 6 7:50 AM, Spydeberg, Weather by CustomWeather, © 2015

Note: Actual official high and low records may vary slightly from our data, if they occured in-between our weather recording intervals... More about our weather records

Advertising

Spydeberg weather history for previous 24 hours

 ConditionsComfort  
Time TempWeatherWind HumidityBarometerVisibility
7:50 AM
Mon, Jul 6
66 °FPartly sunny.13 mph94%29.62 "HgN/A
7:20 AM66 °FScattered showers. Broken clouds.14 mph88%29.62 "HgN/A
6:50 AM64 °FPartly sunny.14 mph94%29.65 "HgN/A
6:20 AM64 °FPartly sunny.13 mph94%29.65 "HgN/A
5:54 AM64 °FRain showers. Partly sunny.9 mph94%29.68 "HgN/A
4:50 AM63 °FHeavy rain. Partly cloudy.7 mph100%29.71 "Hg1 mi
4:20 AM63 °FLight rain. Passing clouds.3 mph100%29.74 "Hg2 mi
3:50 AM63 °FRain. Dense fog.6 mph94%29.77 "Hg2 mi
3:20 AM63 °FLight rain. Overcast.3 mph94%29.80 "Hg1 mi
2:50 AM63 °FPassing clouds.No wind94%29.80 "Hg2 mi
2:20 AM63 °FPassing clouds.No wind100%29.80 "Hg2 mi
1:50 AM63 °FLight rain. Mostly cloudy.6 mph100%29.83 "Hg2 mi
1:20 AM63 °FFog.7 mph100%29.86 "Hg2 mi
12:50 AM64 °FFog.8 mph94%29.86 "Hg2 mi
12:20 AM64 °FClear.2 mph88%29.86 "Hg10 mi
11:50 PM
Sun, Jul 5
63 °FClear.2 mph94%29.86 "Hg10 mi
10:50 PM66 °FClear.5 mph88%29.89 "HgN/A
10:20 PM66 °FClear.5 mph88%29.89 "HgN/A
9:50 PM68 °FPassing clouds.3 mph83%29.89 "HgN/A
9:20 PM68 °FSunny.5 mph83%29.89 "Hg10 mi
8:50 PM70 °FSunny.6 mph78%29.89 "Hg10 mi
8:20 PM72 °FSunny.7 mph73%29.92 "Hg10 mi
7:20 PM75 °FSunny.8 mph57%29.95 "Hg10 mi
6:50 PM77 °FPassing clouds.6 mph57%29.95 "HgN/A
6:20 PM77 °FPassing clouds.3 mph57%29.95 "HgN/A
5:50 PM75 °FSunny.7 mph61%29.98 "Hg10 mi
5:20 PM75 °FPassing clouds.8 mph65%29.98 "HgN/A
4:50 PM75 °FSunny.10 mph65%29.98 "Hg10 mi
4:20 PM75 °FPassing clouds.9 mph65%30.01 "HgN/A
3:50 PM75 °FPassing clouds.7 mph65%30.01 "HgN/A
3:20 PM73 °FScattered clouds.10 mph69%30.01 "HgN/A
2:50 PM72 °FPassing clouds.10 mph69%30.04 "HgN/A
2:20 PM73 °FPassing clouds.9 mph65%30.04 "HgN/A
1:50 PM73 °FPassing clouds.8 mph65%30.04 "HgN/A
1:20 PM73 °FSunny.9 mph57%30.04 "Hg10 mi
12:50 PM72 °FSunny.8 mph69%30.04 "Hg10 mi
11:50 AM73 °FPassing clouds.3 mph69%30.04 "HgN/A
10:50 AM70 °FPassing clouds.2 mph73%30.07 "HgN/A
10:20 AM70 °FPartly sunny.No wind73%30.07 "HgN/A
9:50 AM66 °FPartly sunny.3 mph83%30.07 "HgN/A
9:20 AM64 °FPartly sunny.1 mph83%30.07 "HgN/A
Weather by CustomWeather, © 2015

See weather overviewHow to use our weather pages